THORAD AGENA D DEB, 4772

Orbit data source: Space-Track

THORAD AGENA D DEB, 4772 is space debris in SSO originally from a launch on Wed, 08 Apr 1970 UTC launched from the Air Force Western Test Range (AFWTR). Debris objects in space refer to the collection of defunct objects orbiting the Earth. Examples of debris include non-operational satellites, rocket bodies, and fragments generated from explosions, collisions, or faulty payload assembly.

Loading next visibility...
Identifier
4772, 1970-025DS
Orbit
SSO
Country
Flag of USUS
Related business
Manufacturer
Unknown
Mission
Spacecraft
Bus & Motor
Unknown
Mass
Unknown
Launch date (UTC)
1970-04-08 (56 years ago)
Launch vehicle
Unknown
Launch site
Air Force Western Test Range (AFWTR)
Object type
Payload
Rocket body
Debris
Shape & HBR
Unknown shape, 0.1 m
Radar Cross Section
Small (<0.1 m²)

Expand to show TLE details & history
Last TLE update: 7 hours ago

TLE from 7 hours ago
0 THORAD AGENA D DEB
1  4772U 70025DS  26124.18076659  .00000457  00000-0  10219-2 0  9992
2  4772  99.7583 282.5619 0179751  34.7328 144.0733 13.26947343696334
Epoch: 2026-05-04T04:20Z
TLE epoch observation values (Epoch: 2026-05-04T04:20:18.233Z)
Latitude
-0.10322°
Longitude
175.39461°
Altitude
1,271.605 km
Speed
7.167 km/s
True Right ascension
06h 50m 10s
True Declination
0° 06' 10"
Sunlit
Object was in daylight at epoch
Visualization orbit readout
Latitude
Unknown
Longitude
Unknown
Altitude
Unknown
Speed
Unknown
Apparent Right ascension
Unknown
Apparent Declination
Unknown
Sunlit
N/A
Visualization observer readout
Local Sidereal Time
19:36:13
Azimuth
Unknown
Elevation
Unknown
Doppler factor
Unknown
Orbital elements
Apogee altitude
1,291.054 km
Perigee altitude
1,020.213 km
Semi-major axis
7,533.771 km
Eccentricity
0.01798
Inclination
99.7583°
RAAN
282.5619°
Arg. of periapsis
34.7328°
True anomaly
145.26019°
Mean anomaly
144.0733°
Eccentric anomaly
144.66889°
Mean motion
3.31913 °/min
Orbital period
108.46 mins
BSTAR
0.0010219
Loading maneuver chart data...
Computing Atmospheric mass density...
Loading historical data...
Loading historical data...
Loading historical data...
Loading historical data...
Loading historical data...
Loading historical data...
Loading historical data...

Documentation

Showing up to 5 results
|